This demonstration page uses our WeatherBlox Daily Observations layout. Learn more.

Left ArrowRight Arrow

Hourly Observations for November 23, 2015

Temp ( °F °C ) Dew Point ( °F °C ) Humidity (%) Winds ( mph kmh ) Pressure ( in mb ) Visibility ( mi km ) Precip ( " mm )
12:53 am 00:53 Partly Cloudy 18 -7.8 16 -8.9 92 92 Calm 30.24 1024 10 16 0.00 0.00
1:53 am 01:53 Cloudy 20 -6.7 18 -7.8 92 92 Calm 30.23 1024 10 16 0.00 0.00
2:53 am 02:53 Cloudy 23 -5 20 -6.7 88 88 Calm 30.23 1024 10 16 0.00 0.00
3:53 am 03:53 Cloudy 24 -4.4 21 -6.1 88 88 Calm 30.23 1024 10 16 0.00 0.00
4:53 am 04:53 Partly Cloudy 24 -4.4 21 -6.1 88 88 Calm 30.22 1024 10 16 0.00 0.00
5:53 am 05:53 Cloudy 27 -2.8 22 -5.6 81 81 Calm 30.22 1023 10 16 0.00 0.00
6:53 am 06:53 Partly Cloudy 25 -3.9 20 -6.7 81 81 SE 5 7 30.22 1023 10 16 0.00 0.00
7:53 am 07:53 Cloudy 28 -2.2 20 -6.7 72 72 VRB 3 6 30.22 1023 10 16 0.00 0.00
8:53 am 08:53 Cloudy 31 -0.6 18 -7.8 59 59 S 5 7 30.22 1023 10 16 0.00 0.00
9:53 am 09:53 Mostly Cloudy 35 1.7 17 -8.3 48 48 SSW 7 11 30.21 1023 10 16 0.00 0.00
10:53 am 10:53 Mostly Cloudy 37 2.8 15 -9.4 41 41 S 10 17 30.20 1023 10 16 0.00 0.00
11:53 am 11:53 Sunny 42 5.6 16 -8.9 35 35 SSW 13 20 30.16 1022 10 16 0.00 0.00
12:53 pm 12:53 Sunny 44 6.7 18 -7.8 35 35 SSW 12 19 30.14 1021 10 16 0.00 0.00
1:53 pm 13:53 Sunny 47 8.3 19 -7.2 33 33 WSW 9 15 30.13 1020 10 16 0.00 0.00
2:53 pm 14:53 Sunny 47 8.3 21 -6.1 36 36 W 14 22 30.14 1021 10 16 0.00 0.00
3:53 pm 15:53 Sunny 47 8.3 23 -5 39 39 WSW 8 13 30.14 1021 10 16 0.00 0.00
4:53 pm 16:53 Cloudy 46 7.8 25 -3.9 44 44 W 7 11 30.16 1021 10 16 0.00 0.00
5:53 pm 17:53 Mostly Cloudy 43 6.1 25 -3.9 49 49 WSW 6 9 30.18 1022 10 16 0.00 0.00
6:53 pm 18:53 Cloudy 37 2.8 27 -2.8 67 67 Calm 30.21 1023 10 16 0.00 0.00
7:53 pm 19:53 Mostly Cloudy 37 2.8 28 -2.2 70 70 WSW 3 6 30.22 1024 10 16 0.00 0.00
8:53 pm 20:53 Clear 39 3.9 26 -3.3 60 60 WSW 5 7 30.23 1024 10 16 0.00 0.00
9:53 pm 21:53 Clear 32 0 26 -3.3 79 79 Calm 30.24 1024 10 16 0.00 0.00
10:53 pm 22:53 Clear 29 -1.7 25 -3.9 85 85 Calm 30.25 1025 10 16 0.00 0.00
11:53 pm 23:53 Clear 28 -2.2 25 -3.9 88 88 Calm 30.26 1025 10 16 0.00 0.00

Powered by AerisWeather